Thompson, Ohio, United States (44086)
Lat: 41.69N, Lon: 81.05W
Wx Zone: OHZ013
Local Info
Past Weather Observations for Monday, April 21, 2014

NOTE: This archive is for the closest National Weather Service station to Thompson. Information may differ from the station used for current weather conditions.

Time Weather Temperature Dewpoint Humidity Pressure Winds Precip Visibility
23:53
Overcast
64°F / 18°C 43°F / 6°C 46% 29.77 in
(1008 mb)
SSW 11.5 mph
(SSW 19 kph)
- 10SM
22:53
Overcast
63°F / 17°C 39°F / 4°C 42% 29.77 in
(1008 mb)
S 6.9 mph
(S 11 kph)
- 10SM
21:53
Clear
63°F / 17°C 39°F / 4°C 42% 29.8 in
(1009 mb)
S 8.1 mph
(S 13 kph)
- 10SM
20:53
Clear
63°F / 17°C 39°F / 4°C 42% 29.8 in
(1009 mb)
S 4.6 mph
(S 7 kph)
- 10SM
19:53
Clear
63°F / 17°C 39°F / 4°C 42% 29.83 in
(1010 mb)
SSE 3.5 mph
(SSE 6 kph)
- 10SM
18:53
Clear
66°F / 19°C 37°F / 3°C 35% 29.83 in
(1010 mb)
Calm - 10SM
17:53
Clear
70°F / 21°C 36°F / 2°C 29% 29.86 in
(1011 mb)
WNW 5.8 mph
(WNW 9 kph)
- 10SM
16:53
Clear
72°F / 22°C 36°F / 2°C 27% 29.89 in
(1012 mb)
NW 9.2 mph
(NW 15 kph)
- 10SM
15:53
Clear
72°F / 22°C 36°F / 2°C 27% 29.89 in
(1012 mb)
NW 12.7 mph
(NW 20 kph)
- 10SM
14:53
Clear
73°F / 23°C 37°F / 3°C 27% 29.89 in
(1012 mb)
NNW 11.5 mph
(NNW 19 kph)
- 10SM
13:53
Clear
75°F / 24°C 37°F / 3°C 25% 29.92 in
(1013 mb)
SSW 5.8 mph
(SSW 9 kph)
- 10SM
12:53
Clear
75°F / 24°C 36°F / 2°C 24% 29.95 in
(1014 mb)
SSW 4.6 mph
(SSW 7 kph)
- 10SM
11:53
Clear
73°F / 23°C 36°F / 2°C 25% 29.98 in
(1015 mb)
SSW 8.1 mph
(SSW 13 kph)
- 10SM
10:53
Clear
72°F / 22°C 36°F / 2°C 27% 30.01 in
(1016 mb)
Variable 5.8 mph
(Variable 9 kph)
- 10SM
09:53
Clear
66°F / 19°C 32°F / 0°C 28% 30.04 in
(1017 mb)
SW 5.8 mph
(SW 9 kph)
- 10SM
08:53
Clear
63°F / 17°C 32°F / 0°C 32% 30.06 in
(1018 mb)
SW 8.1 mph
(SW 13 kph)
- 10SM
07:53
Clear
55°F / 13°C 32°F / 0°C 41% 30.06 in
(1018 mb)
S 8.1 mph
(S 13 kph)
- 10SM
06:53
Clear
52°F / 11°C 30°F / -1°C 44% 30.09 in
(1019 mb)
S 8.1 mph
(S 13 kph)
- 10SM
05:53
Clear
46°F / 8°C 30°F / -1°C 53% 30.09 in
(1019 mb)
S 6.9 mph
(S 11 kph)
- 10SM
04:53
Clear
48°F / 9°C 28°F / -2°C 46% 30.09 in
(1019 mb)
S 5.8 mph
(S 9 kph)
- 10SM
03:53
Clear
48°F / 9°C 28°F / -2°C 46% 30.09 in
(1019 mb)
S 6.9 mph
(S 11 kph)
- 10SM
02:53
Clear
52°F / 11°C 28°F / -2°C 41% 30.09 in
(1019 mb)
SSE 5.8 mph
(SSE 9 kph)
- 10SM
01:53
Clear
54°F / 12°C 27°F / -3°C 35% 30.12 in
(1020 mb)
SSE 5.8 mph
(SSE 9 kph)
- 10SM
00:53
Clear
55°F / 13°C 25°F / -4°C 31% 30.12 in
(1020 mb)
SSE 5.8 mph
(SSE 9 kph)
- 10SM
Time Weather Temperature Dewpoint Humidity Pressure Winds Precip Visibility


Weather for websites

WeatherForYou.com, LLC is not responsible for any damages or problems caused by this service. Current weather conditions are obtained from the closest station including government and personal stations which may have varying degrees of accuracy. Weather forecasts are derived from the NOAA NDFD. Like all things, this site belongs to Jesus Christ... He just trusts me to maintain it. If you have any questions or comments email webmaster@weatherforyou.com

Copyright © 2014, WeatherForYou.com LLC. All rights reserved.